This is the latest recevied weather packets stored in our database for station/object N4BBA. If no packets are shown the sender has not sent any weather packets the latest 10 day(s).
| Time | Temp. | Humidity | Pressure | Rain* | Wind** | Luminosity | Snow |
|---|---|---|---|---|---|---|---|
| 1777761631 | 11.67° C | 94% | 1011.3 hPa | 0 mm | - | 60 W/m² | - |
| 1777761329 | 11.67° C | 94% | 1011.2 hPa | 0 mm | - | 55 W/m² | - |
| 1777761027 | 12.22° C | 94% | 1011.2 hPa | 0 mm | - | 48 W/m² | - |
| 1777760724 | 11.67° C | 94% | 1011.2 hPa | 0 mm | - | 58 W/m² | - |
| 1777760420 | 12.22° C | 94% | 1011.2 hPa | 0 mm | - | 75 W/m² | - |
| 1777760115 | 12.22° C | 94% | 1011.2 hPa | 0 mm | - | 81 W/m² | - |
| 1777759813 | 12.22° C | 94% | 1011 hPa | 0 mm | - | 84 W/m² | - |
| 1777759508 | 12.22° C | 94% | 1011.3 hPa | 0 mm | - | 78 W/m² | - |
| 1777759206 | 11.67° C | 94% | 1011.1 hPa | 1.78 mm | - | 98 W/m² | - |
| 1777758903 | 11.67° C | 94% | 1011 hPa | 0 mm | - | 110 W/m² | - |
| 1777758600 | 11.67° C | 94% | 1011 hPa | 0 mm | - | 99 W/m² | - |
| 1777758297 | 12.22° C | 95% | 1010.9 hPa | 0 mm | - | 115 W/m² | - |
| 1777757994 | 12.22° C | 95% | 1011 hPa | 0 mm | - | 107 W/m² | - |
| 1777757690 | 12.22° C | 95% | 1010.7 hPa | 1.27 mm | - | 121 W/m² | - |
| 1777757389 | 11.67° C | 95% | 1011.2 hPa | 1.27 mm | - | 146 W/m² | - |
| 1777757087 | 12.22° C | 95% | 1011 hPa | 0 mm | - | 153 W/m² | - |
| 1777756784 | 12.78° C | 95% | 1011.1 hPa | 0 mm | - | 141 W/m² | - |
| 1777756480 | 12.22° C | 95% | 1011.1 hPa | 1.78 mm | - | 154 W/m² | - |
| 1777756178 | 12.78° C | 95% | 1011.1 hPa | 1.78 mm | - | 176 W/m² | - |
| 1777755874 | 12.78° C | 95% | 1011 hPa | 0 mm | - | 193 W/m² | - |
| 1777755571 | 12.78° C | 95% | 1011.3 hPa | 0 mm | - | 214 W/m² | - |
| 1777755267 | 12.78° C | 95% | 1011.1 hPa | 1.27 mm | - | 209 W/m² | - |
| 1777754965 | 12.22° C | 95% | 1011 hPa | 1.27 mm | - | 176 W/m² | - |
| 1777754662 | 12.22° C | 95% | 1011.2 hPa | 0 mm | - | 204 W/m² | - |
| 1777754360 | 12.22° C | 95% | 1011.3 hPa | 0 mm | - | 185 W/m² | - |
* Rain latest hour (hover to see other rain measurements)
** Current wind speed in m/s (hover to see current wind gust speed)